Wetbulb
72.56 73.10 74.21 73.62 72.51 71.59 71.36 71.55 71.15 70.84 70.55 69.28 69.45 68.18 67.52 69.04 69.60 69.64 69.19 70.39 68.89 69.27 68.40 68.72 68.92 68.84 69.08 69.14 69.23 69.15 68.79 68.83 68.70
73.35 72.98 73.97 73.59 72.83 71.70 71.14 71.09 70.92 70.71 71.18 69.38 69.13 67.89 67.15 68.91 68.79 69.00 69.22 69.44 68.57 68.00 68.18 67.99 68.50 68.49 68.53 68.91 68.73 68.63 68.73 68.43 68.38
74.22 73.39 73.09 73.44 73.49 72.47 71.25 70.84 70.54 70.83 71.81 69.89 69.31 67.80 66.96 68.47 68.52 68.89 69.30 68.73 68.06 67.93 68.31 68.45 68.07 68.04 68.53 68.47 68.32 68.21 68.16 68.04 67.85
74.39 74.40 73.53 73.26 73.57 73.01 72.22 71.13 70.51 70.93 71.39 70.09 69.59 68.32 66.73 69.19 68.75 68.64 69.10 67.95 67.59 67.39 67.21 67.59 67.52 67.80 67.71 67.85 67.84 67.88 67.79 67.68 67.08
73.64 73.73 73.83 73.38 73.15 73.56 73.01 72.16 71.04 70.46 71.08 70.75 70.11 68.72 67.51 69.06 69.46 70.62 69.07 67.81 66.97 67.05 67.04 67.01 67.59 67.34 67.44 67.52 67.43 67.45 67.27 67.23 66.92
73.94 73.29 73.65 73.51 73.12 73.02 73.28 72.49 71.96 71.43 70.84 70.70 70.88 69.32 69.14 68.85 69.59 70.45 67.64 67.27 66.75 66.56 66.64 66.86 66.96 67.02 67.24 66.85 66.78 66.75 66.57 66.43 66.41
73.16 72.62 72.93 73.41 73.24 72.98 72.65 72.55 71.85 71.46 70.56 70.26 70.53 69.90 69.40 68.96 68.95 69.51 68.04 67.29 66.58 66.14 65.62 66.49 66.46 66.55 66.77 66.32 66.42 66.28 66.03 65.96 65.93
73.19 72.94 73.09 72.65 72.85 72.50 72.24 72.21 72.08 71.07 70.22 70.16 69.80 69.92 69.52 69.13 69.12 69.10 68.20 67.67 66.53 65.90 65.26 65.63 65.90 65.82 66.18 66.06 65.95 66.12 65.93 65.67 65.59
72.09 72.23 72.66 72.43 71.98 71.14 71.48 71.67 71.84 71.45 70.73 70.21 69.57 69.39 69.17 69.13 68.92 68.94 68.15 67.94 67.29 66.51 66.03 65.61 65.20 65.50 65.69 65.82 65.70 65.51 65.36 65.10 65.06
73.07 71.96 72.98 72.33 72.44 71.84 71.10 71.16 70.94 70.61 70.27 69.67 69.48 69.09 68.82 68.76 68.79 69.44 67.92 67.71 67.35 66.81 66.33 65.94 65.20 65.25 65.15 65.29 65.41 65.04 64.65 64.68 64.58
72.22 71.68 71.35 71.28 73.19 72.42 71.43 70.51 70.19 70.02 70.08 69.45 68.77 69.06 68.41 68.87 69.18 68.96 67.37 67.29 67.04 66.58 66.26 65.60 65.32 65.14 64.63 64.46 64.68 64.68 63.97 64.04 64.24
71.09 71.33 71.95 71.31 73.08 72.01 71.62 70.75 69.88 69.30 69.53 69.30 69.19 68.80 68.11 68.73 68.95 68.89 67.44 67.21 66.72 66.69 65.99 65.59 65.44 64.79 64.48 63.86 63.82 64.33 63.81 63.50 63.71
69.53 69.73 69.51 72.04 72.26 71.75 71.32 69.42 67.87 68.42 68.48 68.54 68.61 68.30 67.64 67.96 68.76 67.68 66.63 66.98 66.66 66.00 65.87 65.30 64.62 64.07 63.74 63.71 63.45 63.47 63.36 63.16 63.03
65.57 66.86 67.98 68.64 69.77 70.05 69.74 69.36 68.25 67.17 67.19 67.88 68.11 67.89 67.19 67.57 67.76 66.31 66.74 66.90 65.50 66.06 65.68 64.49 64.26 63.94 63.97 63.71 63.26 63.02 63.56 62.89 62.92
63.85 65.15 66.85 67.60 67.68 67.62 68.99 68.52 68.14 68.20 65.09 65.47 65.65 66.57 67.01 67.66 67.42 66.62 66.26 65.09 64.15 64.41 65.46 65.42 65.12 63.59 63.25 63.25 63.11 62.88 62.83 62.94 62.69
62.26 62.03 64.04 64.93 67.28 67.29 67.08 66.20 65.98 65.38 66.30 63.01 62.34 62.87 64.96 65.94 66.23 66.45 64.37 62.86 63.54 64.18 64.99 65.07 64.16 64.06 63.50 63.55 63.54 63.36 63.47 62.64 61.95
62.27 63.36 61.95 63.13 63.99 65.57 65.94 65.41 64.48 64.41 64.73 63.05 60.47 56.86 58.38 59.25 60.87 62.88 62.49 62.63 63.10 62.91 63.46 64.11 62.81 62.50 63.08 62.99 61.77 62.06 63.00 63.14 62.38
61.40 61.97 63.65 62.26 63.15 63.50 64.85 65.17 64.80 62.93 62.46 64.76 62.43 56.78 55.28 55.91 57.27 55.80 58.38 59.60 58.95 59.19 59.93 60.56 61.02 61.78 62.87 62.18 61.92 61.84 62.01 62.48 62.96
60.64 61.81 63.14 64.40 63.40 62.91 63.43 64.95 64.62 65.30 60.58 64.75 64.71 63.94 61.01 55.25 52.20 53.87 53.94 54.79 55.15 56.33 56.72 57.82 57.65 58.68 60.24 60.12 60.46 60.70 60.81 60.90 61.63
59.77 60.79 61.80 62.71 63.40 62.62 62.93 64.11 63.91 64.85 63.07 62.70 62.87 63.41 62.81 62.65 56.09 50.26 50.26 51.87 52.36 53.08 54.29 55.32 55.99 57.13 58.35 60.03 60.62 60.41 60.38 60.99 60.88
MSLP
1013.11 1013.18 1013.15 1013.23 1013.29 1013.37 1013.30 1013.39 1013.52 1013.48 1013.66 1013.67 1013.62 1013.50 1013.48 1012.96 1012.51 1012.44 1012.39 1012.31 1012.62 1012.51 1012.35 1012.10 1011.91 1011.62 1011.39 1011.21 1010.91 1010.52 1010.20 1010.00 1009.62
1013.00 1013.08 1013.18 1013.23 1013.31 1013.44 1013.41 1013.38 1013.40 1013.45 1013.53 1013.69 1013.73 1013.69 1013.60 1012.65 1012.67 1012.55 1012.44 1012.78 1012.78 1012.60 1012.44 1012.36 1012.04 1011.97 1011.70 1011.43 1011.13 1010.66 1010.36 1010.08 1009.79
1012.80 1012.90 1013.00 1013.17 1013.28 1013.30 1013.41 1013.51 1013.55 1013.41 1013.26 1013.52 1013.72 1013.81 1013.68 1012.81 1012.75 1012.77 1012.65 1013.26 1013.03 1012.79 1012.62 1012.49 1012.32 1012.22 1011.93 1011.66 1011.25 1010.85 1010.61 1010.34 1010.03
1012.51 1012.62 1012.73 1012.88 1013.05 1013.20 1013.30 1013.42 1013.48 1013.50 1013.54 1013.53 1013.61 1013.78 1013.66 1012.75 1012.78 1012.59 1012.46 1013.44 1013.21 1013.06 1012.86 1012.70 1012.58 1012.38 1012.32 1011.85 1011.49 1011.18 1010.90 1010.58 1010.19
1012.39 1012.49 1012.61 1012.72 1012.83 1012.93 1013.04 1013.18 1013.26 1013.40 1013.36 1013.51 1013.58 1013.70 1013.70 1012.81 1012.91 1012.65 1013.10 1013.39 1013.30 1013.15 1013.09 1012.78 1012.82 1012.61 1012.49 1012.19 1011.80 1011.48 1011.14 1010.86 1010.54
1011.55 1011.68 1011.95 1012.34 1012.56 1012.64 1012.67 1012.92 1013.10 1013.19 1013.38 1013.46 1013.36 1013.53 1012.65 1012.65 1012.53 1012.52 1013.64 1013.54 1013.51 1013.46 1013.26 1013.09 1012.83 1012.84 1012.69 1012.46 1012.27 1011.86 1011.47 1011.36 1010.88
1010.65 1011.23 1011.68 1012.00 1012.20 1012.33 1012.56 1012.67 1012.90 1013.07 1012.24 1012.53 1013.29 1012.81 1012.14 1012.28 1012.33 1012.32 1013.40 1013.66 1013.63 1013.67 1013.55 1013.33 1013.06 1012.92 1012.87 1012.83 1012.57 1012.25 1011.96 1011.61 1011.14
1010.07 1010.63 1011.07 1011.20 1011.51 1011.49 1011.74 1012.18 1012.23 1011.88 1011.66 1011.60 1011.75 1011.77 1011.64 1011.78 1011.97 1012.49 1013.27 1013.61 1013.62 1013.62 1013.61 1013.48 1013.38 1013.12 1012.96 1012.94 1012.87 1012.63 1012.29 1011.79 1011.34
1009.65 1009.84 1010.18 1010.29 1010.43 1010.53 1010.73 1011.55 1011.55 1011.58 1011.22 1011.17 1011.40 1011.33 1011.33 1011.48 1011.67 1012.06 1013.02 1013.43 1013.55 1013.49 1013.53 1013.49 1013.47 1013.33 1013.17 1013.09 1013.11 1012.91 1012.59 1012.12 1011.64
1009.76 1009.73 1010.13 1010.16 1010.01 1010.39 1010.35 1010.81 1011.08 1011.05 1010.82 1010.75 1010.93 1011.06 1010.89 1011.09 1011.43 1011.73 1012.95 1013.23 1013.57 1013.42 1013.57 1013.49 1013.45 1013.51 1013.28 1013.27 1013.12 1013.06 1012.76 1012.43 1012.02
1009.45 1009.49 1009.63 1009.63 1009.92 1010.11 1010.18 1010.13 1010.27 1010.49 1010.52 1010.42 1010.59 1010.79 1010.71 1010.84 1011.27 1012.22 1012.87 1013.11 1013.55 1013.53 1013.50 1013.52 1013.55 1013.44 1013.39 1013.35 1013.35 1013.13 1012.94 1012.63 1012.30
1009.29 1009.26 1009.22 1008.97 1009.16 1009.37 1009.82 1009.77 1009.73 1009.97 1010.29 1010.46 1010.50 1010.65 1010.58 1011.05 1011.31 1012.12 1012.57 1012.97 1013.27 1013.48 1013.46 1013.49 1013.53 1013.41 1013.42 1013.36 1013.31 1013.38 1013.13 1012.80 1012.50
1009.55 1009.32 1009.14 1008.72 1008.78 1009.01 1009.09 1009.26 1009.40 1009.85 1009.88 1010.05 1010.27 1010.44 1010.43 1010.76 1011.13 1011.72 1012.38 1012.54 1012.90 1013.22 1013.50 1013.47 1013.59 1013.50 1013.36 1013.36 1013.41 1013.58 1013.37 1013.01 1012.72
1009.46 1009.30 1008.97 1008.91 1008.80 1008.75 1008.85 1008.97 1009.23 1009.76 1010.00 1010.20 1010.22 1009.88 1010.32 1010.77 1010.90 1011.70 1012.03 1012.47 1012.99 1013.10 1013.36 1013.38 1013.54 1013.59 1013.48 1013.52 1013.55 1013.53 1013.47 1013.24 1012.82
1009.19 1008.88 1008.67 1008.72 1008.65 1008.56 1008.51 1008.31 1008.85 1009.16 1009.56 1009.99 1010.42 1010.07 1010.42 1010.80 1011.07 1011.44 1012.02 1012.47 1012.82 1012.90 1013.02 1012.97 1013.28 1013.58 1013.54 1013.48 1013.67 1013.52 1013.42 1013.34 1013.02
1009.18 1009.09 1008.63 1008.16 1008.01 1007.95 1008.25 1008.30 1008.51 1008.90 1009.39 1010.26 1010.57 1010.73 1010.86 1011.02 1011.30 1011.61 1012.19 1012.58 1012.89 1012.83 1013.08 1013.33 1013.59 1013.51 1013.55 1013.57 1013.66 1013.57 1013.57 1013.45 1013.17
1009.11 1008.53 1008.35 1008.22 1008.00 1007.72 1007.70 1007.82 1008.04 1008.56 1008.91 1009.14 1010.02 1010.68 1011.45 1011.77 1011.71 1011.65 1012.13 1012.58 1012.85 1013.10 1013.23 1013.42 1013.75 1013.77 1013.57 1013.89 1014.01 1014.01 1013.85 1013.55 1013.40
1008.67 1008.35 1007.69 1007.74 1007.78 1007.55 1007.30 1007.26 1007.27 1007.60 1008.35 1008.02 1008.42 1009.73 1010.25 1011.34 1012.27 1012.38 1012.24 1012.65 1013.17 1013.49 1014.12 1014.20 1014.03 1014.04 1014.00 1014.01 1014.08 1014.21 1014.13 1013.97 1013.44
1008.13 1007.85 1007.34 1007.09 1007.16 1006.94 1006.79 1006.73 1006.80 1006.67 1007.33 1007.63 1007.73 1007.67 1008.50 1010.20 1011.91 1012.88 1013.23 1013.22 1013.89 1014.10 1014.42 1014.61 1014.81 1014.64 1014.38 1014.60 1014.53 1014.46 1014.29 1014.17 1013.75
1008.09 1007.48 1006.77 1006.43 1006.16 1006.27 1006.15 1006.06 1006.16 1006.14 1006.44 1006.83 1007.45 1007.60 1007.70 1007.94 1010.12 1012.28 1013.63 1014.09 1014.76 1014.90 1014.94 1015.06 1015.25 1014.85 1014.70 1014.62 1014.42 1014.44 1014.27 1014.20 1014.13
Wind_Speed
8 7 6 7 7 7 7 6 5 4 5 5 5 5 2 6 6 6 6 11 11 12 12 13 13 15 16 17 17 18 18 20 20
10 8 7 7 7 7 7 7 6 5 6 5 4 4 1 4 5 6 6 10 9 10 11 12 14 15 15 16 16 18 19 20 20
11 10 8 8 9 8 8 8 7 5 10 7 5 3 3 1 5 5 6 8 9 9 11 12 13 12 14 15 16 17 19 19 20
12 12 11 11 9 10 9 9 8 7 8 8 7 5 2 3 4 3 5 6 7 8 9 11 11 13 14 14 16 17 18 18 20
11 11 12 11 11 12 11 10 10 10 9 8 8 6 5 3 1 1 6 5 6 7 9 9 11 11 13 14 15 16 17 19 20
13 12 9 13 13 13 13 11 12 11 9 9 8 9 6 5 2 0 4 3 4 5 7 8 10 11 12 13 14 15 17 17 19
8 6 8 12 14 13 12 12 11 9 9 9 8 8 6 5 4 2 4 2 3 5 5 8 8 10 11 12 14 15 15 17 19
9 8 7 10 14 10 12 10 9 12 9 7 8 9 7 5 4 6 6 4 3 4 4 6 7 8 10 11 12 14 16 17 18
9 7 8 8 7 10 9 6 10 11 12 11 10 10 8 6 4 7 7 6 5 5 5 5 5 7 9 10 11 13 14 16 17
8 9 8 10 7 9 9 10 10 11 13 11 11 11 11 9 5 3 6 6 6 6 5 6 5 6 8 9 11 11 13 15 16
9 9 8 9 8 9 9 10 10 10 11 11 11 12 11 9 7 5 4 6 7 6 6 5 5 6 6 7 9 10 11 13 15
11 9 10 10 8 11 10 12 11 10 10 12 11 9 11 9 10 7 4 6 7 7 6 6 5 5 5 5 7 8 10 12 14
10 7 8 10 8 8 9 9 7 8 10 9 9 9 10 10 8 7 5 6 5 5 5 5 2 3 3 6 6 6 8 10 12
7 7 6 8 8 9 10 10 9 9 6 6 9 8 8 9 7 9 8 7 4 3 6 4 3 2 3 3 3 5 7 8 10
9 9 9 7 6 7 8 11 9 10 7 6 7 6 5 6 6 10 8 6 4 4 7 5 5 2 2 3 0 3 5 6 7
7 7 10 10 9 10 9 10 10 6 8 4 3 3 4 8 6 6 6 4 4 3 4 3 2 2 5 5 5 6 7 4 5
11 9 7 8 7 9 9 9 6 7 9 6 5 3 1 4 4 2 6 7 3 1 2 4 4 3 3 6 9 9 9 8 5
10 12 9 9 8 7 9 10 13 8 7 13 6 4 4 3 3 6 3 7 6 6 6 5 5 3 2 1 4 8 9 9 10
13 10 11 10 8 9 9 9 10 11 9 9 8 9 10 5 3 3 5 7 6 7 5 5 5 3 3 3 2 4 5 7 8
15 14 13 11 7 8 10 11 11 10 9 10 8 8 9 10 6 4 3 5 5 5 5 5 3 3 2 2 1 3 4 8 13
Wind_Direction
197 213 209 167 164 160 155 159 156 145 149 120 108 90 72 269 56 49 75 58 48 45 41 30 34 33 28 30 22 22 17 17 14
205 207 208 189 183 178 173 176 177 183 182 147 117 96 2 15 56 62 51 58 53 50 47 30 39 31 27 28 24 23 21 19 14
212 211 212 219 208 192 189 192 196 199 173 161 157 144 280 148 62 62 66 56 47 48 53 42 39 31 34 30 30 21 24 20 20
222 216 215 217 223 209 200 201 201 197 179 182 179 170 269 298 54 63 75 74 68 65 52 43 31 40 30 29 31 26 24 21 17
238 236 222 228 224 214 211 210 205 210 205 207 194 183 218 214 164 59 73 82 84 62 59 49 42 41 38 29 31 28 23 23 15
224 228 233 214 229 230 225 215 214 211 221 221 208 193 227 200 192 150 88 92 92 83 68 53 47 42 37 38 29 31 25 20 18
244 265 207 228 230 235 238 230 221 217 230 196 194 230 216 218 196 139 145 161 120 93 70 60 53 48 38 39 30 25 25 25 20
223 235 225 227 214 233 212 223 227 228 233 240 218 225 221 216 205 129 162 189 168 121 94 82 54 53 50 40 34 30 23 21 26
251 236 240 239 234 230 230 225 228 236 243 233 229 241 222 223 211 148 174 194 192 159 143 111 90 60 56 46 35 33 24 22 25
253 246 233 245 238 246 236 221 229 232 238 237 236 231 238 224 218 164 172 187 214 185 170 128 112 80 62 46 45 39 29 23 23
248 242 241 249 222 233 236 241 232 235 236 238 235 239 238 233 219 161 155 176 220 214 178 155 131 99 84 56 43 38 40 26 21
264 258 248 242 238 233 235 238 236 228 231 235 239 230 243 223 226 180 162 179 186 222 196 184 152 130 107 90 58 42 36 33 23
291 254 258 264 256 239 231 234 232 228 228 225 226 227 236 234 220 181 167 190 172 189 207 191 178 158 119 82 66 49 44 47 27
273 281 256 255 252 233 227 221 213 205 218 237 233 215 221 221 198 177 180 159 158 179 174 145 183 193 143 81 87 67 50 44 39
291 284 257 237 241 248 243 226 212 210 178 185 220 213 219 222 193 185 169 170 165 191 217 177 132 89 114 70 74 48 50 50 39
295 283 286 268 239 224 229 228 208 195 173 141 121 59 208 217 204 183 160 147 169 180 152 150 109 95 84 50 46 42 28 26 32
298 281 271 287 280 257 229 205 197 195 180 169 151 152 101 45 24 123 161 155 130 126 125 135 85 45 51 58 43 27 5 5 4
286 283 274 262 266 255 239 217 207 195 191 182 155 161 169 141 15 42 55 104 101 81 67 62 58 47 49 337 52 30 19 3 18
294 286 273 263 245 252 246 228 223 206 182 194 223 201 140 167 145 37 50 71 65 80 83 67 51 32 33 22 353 2 17 11 22
300 293 280 281 271 250 245 236 218 227 183 192 181 199 186 180 146 135 117 71 53 62 58 56 31 29 14 294 299 40 36 67 52